Location: Pedholt
(56.0260°N, 10.2097°E)
Time: 05:30:33
(UTC+00:00)

Cosmos 407 Rocket - Pass Details

Date: 14 July 2020
Orbit: 744 x 786 km, 74.0° (Epoch: 14 August)

Event Time Altitude Azimuth Distance (km) Brightness Sun altitude
Exits shadow 00:55:10 11° 182° (S) 2,256 5.3 -10.0°
Maximum altitude 01:00:04 50° 109° (ESE) 1,005 4.2 -9.8°
Drops below altitude 10° 01:05:13 10° 35° (NE) 2,357 7.6 -9.5°
Sets 01:07:40 0° 31° (NNE) 3,287 9.0 -9.4°
